Emporia, Virginia, United States (23847)
Lat: 36.69N, Lon: 77.54W
Wx Zone: VAZ087
Local Info
Past Weather Observations for Thursday, August 25, 2016

NOTE: This archive is for the closest National Weather Service station to Emporia. Information may differ from the station used for current weather conditions.

Click here for Long-term Archive

Time Weather Temperature Dewpoint Humidity Pressure Winds Precip Visibility
23:55
Clear
72°F / 22°C 70°F / 21°C 94% 30.09 in
(1019 mb)
SE 3.5 mph
(SE 6 kph)
- 10SM
23:35
Clear
72°F / 22°C 70°F / 21°C 94% 30.09 in
(1019 mb)
SE 3.5 mph
(SE 6 kph)
- 10SM
23:15
Clear
72°F / 22°C 70°F / 21°C 94% 30.06 in
(1018 mb)
Calm - 10SM
22:55
Clear
72°F / 22°C 70°F / 21°C 94% 30.06 in
(1018 mb)
Calm - 10SM
22:35
Clear
72°F / 22°C 70°F / 21°C 94% 30.09 in
(1019 mb)
Calm - 10SM
22:15
Clear
73°F / 23°C 70°F / 21°C 89% 30.06 in
(1018 mb)
Calm - 10SM
21:55
Clear
73°F / 23°C 70°F / 21°C 89% 30.09 in
(1019 mb)
Calm - 10SM
21:35
Clear
73°F / 23°C 70°F / 21°C 89% 30.09 in
(1019 mb)
Calm - 10SM
21:15
Clear
75°F / 24°C 70°F / 21°C 83% 30.09 in
(1019 mb)
SE 3.5 mph
(SE 6 kph)
- 10SM
20:55
Clear
77°F / 25°C 70°F / 21°C 79% 30.09 in
(1019 mb)
Calm - 10SM
20:35
Clear
75°F / 24°C 70°F / 21°C 83% 30.09 in
(1019 mb)
Calm - 10SM
20:15
Clear
77°F / 25°C 72°F / 22°C 83% 30.09 in
(1019 mb)
Calm - 10SM
19:55
Clear
77°F / 25°C 72°F / 22°C 83% 30.09 in
(1019 mb)
Calm - 10SM
19:15
Clear
79°F / 26°C 70°F / 21°C 74% 30.06 in
(1018 mb)
SE 3.5 mph
(SE 6 kph)
- 10SM
18:55
Clear
81°F / 27°C 70°F / 21°C 70% 30.06 in
(1018 mb)
SE 3.5 mph
(SE 6 kph)
-
18:15
Clear
82°F / 28°C 70°F / 21°C 66% 30.06 in
(1018 mb)
SE 3.5 mph
(SE 6 kph)
- 10SM
17:55
Clear
84°F / 29°C 70°F / 21°C 62% 30.06 in
(1018 mb)
SSE 3.5 mph
(SSE 6 kph)
- 10SM
17:35
Clear
86°F / 30°C 70°F / 21°C 59% 30.06 in
(1018 mb)
SE 4.6 mph
(SE 7 kph)
- 10SM
17:15
Clear
88°F / 31°C 70°F / 21°C 55% 30.06 in
(1018 mb)
SSE 4.6 mph
(SSE 7 kph)
- 10SM
16:55
Clear
88°F / 31°C 68°F / 20°C 52% 30.06 in
(1018 mb)
SSE 5.8 mph
(SSE 9 kph)
-
16:35
Clear
88°F / 31°C 68°F / 20°C 52% 30.06 in
(1018 mb)
SSE 4.6 mph
(SSE 7 kph)
- 10SM
16:15
Clear
88°F / 31°C 68°F / 20°C 52% 30.09 in
(1019 mb)
S 4.6 mph
(S 7 kph)
- 10SM
15:55
Clear
88°F / 31°C 68°F / 20°C 52% 30.09 in
(1019 mb)
SSE 5.8 mph
(SSE 9 kph)
- 10SM
15:35
Clear
88°F / 31°C 68°F / 20°C 52% 30.09 in
(1019 mb)
S 6.9 mph
(S 11 kph)
- 10SM
15:15
Clear
88°F / 31°C 68°F / 20°C 52% 30.09 in
(1019 mb)
S 6.9 mph
(S 11 kph)
- 10SM
14:55
Clear
88°F / 31°C 68°F / 20°C 52% 30.09 in
(1019 mb)
S 5.8 mph
(S 9 kph)
- 10SM
14:35
Clear
88°F / 31°C 68°F / 20°C 52% 30.09 in
(1019 mb)
S 8.1 mph
(S 13 kph)
- 10SM
14:15
Clear
88°F / 31°C 68°F / 20°C 52% 30.09 in
(1019 mb)
S 5.8 mph
(S 9 kph)
- 10SM
13:55
Clear
88°F / 31°C 68°F / 20°C 52% 30.09 in
(1019 mb)
SSE 8.1 mph
(SSE 13 kph)
- 10SM
13:35
Partly Cloudy
86°F / 30°C 68°F / 20°C 55% 30.12 in
(1020 mb)
S 9.2 mph
(S 15 kph)
- 10SM
13:15
Partly Cloudy
88°F / 31°C 68°F / 20°C 52% 30.12 in
(1020 mb)
SE 9.2 mph
(SE 15 kph)
- 10SM
12:55
Clear
88°F / 31°C 68°F / 20°C 52% 30.12 in
(1020 mb)
S 9.2 mph
(S 15 kph)
- 10SM
12:35
Clear
86°F / 30°C 68°F / 20°C 55% 30.15 in
(1021 mb)
SW 6.9 mph
(SW 11 kph)
- 10SM
12:15
Clear
86°F / 30°C 68°F / 20°C 55% 30.15 in
(1021 mb)
SSE 5.8 mph
(SSE 9 kph)
- 10SM
11:55
Clear
84°F / 29°C 66°F / 19°C 55% 30.15 in
(1021 mb)
SSE 6.9 mph
(SSE 11 kph)
-
11:35
Clear
84°F / 29°C 66°F / 19°C 55% 30.15 in
(1021 mb)
SSE 6.9 mph
(SSE 11 kph)
- 10SM
11:15
Clear
82°F / 28°C 66°F / 19°C 58% 30.15 in
(1021 mb)
SE 6.9 mph
(SE 11 kph)
- 10SM
10:55
Clear
82°F / 28°C 64°F / 18°C 55% 30.18 in
(1022 mb)
SE 6.9 mph
(SE 11 kph)
- 10SM
10:35
Clear
82°F / 28°C 68°F / 20°C 62% 30.18 in
(1022 mb)
S 5.8 mph
(S 9 kph)
- 10SM
10:15
Clear
81°F / 27°C 66°F / 19°C 62% 30.18 in
(1022 mb)
S 6.9 mph
(S 11 kph)
- 10SM
09:55
Clear
81°F / 27°C 66°F / 19°C 62% 30.18 in
(1022 mb)
SSE 6.9 mph
(SSE 11 kph)
- 10SM
09:35
Clear
79°F / 26°C 68°F / 20°C 70% 30.18 in
(1022 mb)
SSE 5.8 mph
(SSE 9 kph)
-
09:15
Mostly Cloudy
77°F / 25°C 68°F / 20°C 74% 30.18 in
(1022 mb)
S 5.8 mph
(S 9 kph)
- 10SM
08:55
Mostly Cloudy
77°F / 25°C 70°F / 21°C 79% 30.18 in
(1022 mb)
S 5.8 mph
(S 9 kph)
- 10SM
08:35
Partly Cloudy
75°F / 24°C 70°F / 21°C 83% 30.18 in
(1022 mb)
SSE 4.6 mph
(SSE 7 kph)
- 10SM
08:15
Mostly Cloudy
73°F / 23°C 70°F / 21°C 89% 30.18 in
(1022 mb)
Calm - 10SM
07:55
Mostly Cloudy
72°F / 22°C 68°F / 20°C 88% 30.18 in
(1022 mb)
S 3.5 mph
(S 6 kph)
- 10SM
07:35
Overcast
70°F / 21°C 68°F / 20°C 94% 30.18 in
(1022 mb)
Calm - 10SM
07:15
Partly Cloudy
68°F / 20°C 66°F / 19°C 94% 30.21 in
(1023 mb)
Calm - 10SM
06:55
Partly Cloudy
66°F / 19°C 64°F / 18°C 94% 30.18 in
(1022 mb)
Calm - 10SM
06:35
Mostly Cloudy
64°F / 18°C 63°F / 17°C 94% 30.18 in
(1022 mb)
Calm - 10SM
06:15
Mostly Cloudy
63°F / 17°C 63°F / 17°C 100% 30.21 in
(1023 mb)
Calm - 10SM
05:55
Partly Cloudy
Fog And Mist
61°F / 16°C 61°F / 16°C 100% 30.18 in
(1022 mb)
Calm - 4SM
05:35
Obscured
Fog And Mist
59°F / 15°C 59°F / 15°C 100% 30.18 in
(1022 mb)
Calm - 1 1/4SM
05:15
Obscured
Fog And Mist
59°F / 15°C 59°F / 15°C 100% 30.18 in
(1022 mb)
Calm - 1 3/4SM
04:55
Clear
61°F / 16°C 61°F / 16°C 100% 30.18 in
(1022 mb)
Calm - 10SM
04:35
Clear
61°F / 16°C 61°F / 16°C 100% 30.18 in
(1022 mb)
E 3.5 mph
(E 6 kph)
- 10SM
04:15
Clear
Fog And Mist
59°F / 15°C 59°F / 15°C 100% 30.18 in
(1022 mb)
Calm - 5SM
03:55
Clear
Fog And Mist
59°F / 15°C 59°F / 15°C 100% 30.18 in
(1022 mb)
Calm - 3SM
03:35
Obscured
Fog And Mist
59°F / 15°C 59°F / 15°C 100% 30.18 in
(1022 mb)
Calm - 1 1/4SM
03:15
Clear
Fog And Mist
57°F / 14°C 57°F / 14°C 100% 30.18 in
(1022 mb)
Calm - 5SM
02:55
Obscured
Fog And Mist
59°F / 15°C 59°F / 15°C 100% 30.18 in
(1022 mb)
Calm - 3/4SM
02:35
Obscured
Fog And Mist
59°F / 15°C 59°F / 15°C 100% 30.18 in
(1022 mb)
Calm - 1SM
02:15
Obscured
Fog
61°F / 16°C 61°F / 16°C 100% 30.18 in
(1022 mb)
Calm - 1/2SM
01:55
Obscured
Fog
59°F / 15°C 59°F / 15°C 100% 30.18 in
(1022 mb)
Calm - 1/4SM
01:35
Clear
Fog And Mist
59°F / 15°C 59°F / 15°C 100% 30.18 in
(1022 mb)
Calm - 3SM
01:15
Clear
Fog And Mist
59°F / 15°C 59°F / 15°C 100% 30.18 in
(1022 mb)
Calm - 3SM
00:55
Clear
59°F / 15°C 59°F / 15°C 100% 30.21 in
(1023 mb)
Calm - 7SM
00:35
Clear
Fog And Mist
61°F / 16°C 61°F / 16°C 100% 30.21 in
(1023 mb)
Calm - 4SM
00:15
Clear
61°F / 16°C 61°F / 16°C 100% 30.21 in
(1023 mb)
Calm - 10SM
Time Weather Temperature Dewpoint Humidity Pressure Winds Precip Visibility


Weather for websites

WeatherForYou.com, LLC is not responsible for any damages or problems caused by this service. Current weather conditions are obtained from the closest station including government and personal stations which may have varying degrees of accuracy. Weather forecasts are derived from the NOAA NDFD. Like all things, this site belongs to Jesus Christ... He just trusts us to maintain it. If you have any questions or comments email webmaster@weatherforyou.com

Copyright © 2016, WeatherForYou.com LLC. All rights reserved.